Location: *
(40.7190°N, 4.2480°W)
Time: 06:46:26
(UTC+00:00)

BREEZE-M DEB (TANK) - Pass Details

Date: 18 February 2020
Orbit: 579 x 17140 km, 49.4° (Epoch: 09 April)

Event Time Altitude Azimuth Distance (km) Brightness Sun altitude
Exits shadow 06:21:47 - 235° (SW) 2,359 5.6 -9.4°
Reaches altitude 10° 06:22:44 10° 235° (SW) 1,885 5.1 -9.2°
Maximum altitude 06:26:14 86° 147° (SSE) 699 3.4 -8.6°
Drops below altitude 10° 06:32:39 10° 59° (ENE) 3,400 7.6 -7.4°
Sets 06:37:24 0° 59° (ENE) 5,594 8.8 -6.5°
